This is the latest recevied weather packets stored in our database for station/object CE3PA-5. If no packets are shown the sender has not sent any weather packets the latest 10 day(s).
| Time | Temp. | Humidity | Pressure | Rain* | Wind** | Luminosity | Snow |
|---|---|---|---|---|---|---|---|
| 1777499742 | 18.33° C | 22% | 754.3 hPa | - | - | - | - |
| 1777498842 | 19.44° C | 21% | 754.4 hPa | - | - | - | - |
| 1777497942 | 20° C | 21% | 754.3 hPa | - | - | - | - |
| 1777497042 | 20.56° C | 21% | 754.4 hPa | - | - | - | - |
| 1777496142 | 21.11° C | 21% | 754.3 hPa | - | - | - | - |
| 1777495241 | 21.11° C | 22% | 754.3 hPa | - | - | - | - |
| 1777492541 | 22.78° C | 21% | 754.4 hPa | - | - | - | - |
| 1777491641 | 23.33° C | 21% | 754.3 hPa | - | - | - | - |
| 1777489840 | 24.44° C | 20% | 754.5 hPa | - | - | - | - |
| 1777488940 | 24.44° C | 20% | 754.6 hPa | - | - | - | - |
| 1777488040 | 25° C | 20% | 754.7 hPa | - | - | - | - |
| 1777487140 | 25.56° C | 19% | 754.7 hPa | - | - | - | - |
| 1777486240 | 26.67° C | 19% | 754.7 hPa | - | - | - | - |
| 1777485340 | 27.78° C | 18% | 754.8 hPa | - | - | - | - |
| 1777483543 | 27.78° C | 18% | 755.1 hPa | - | - | - | - |
| 1777482643 | 28.33° C | 18% | 755.2 hPa | - | - | - | - |
| 1777481742 | 27.78° C | 18% | 755.2 hPa | - | - | - | - |
| 1777480842 | 27.78° C | 18% | 755.2 hPa | - | - | - | - |
| 1777479942 | 28.33° C | 17% | 755.4 hPa | - | - | - | - |
| 1777479042 | 28.89° C | 17% | 755.3 hPa | - | - | - | - |
| 1777478142 | 28.89° C | 17% | 755.5 hPa | - | - | - | - |
| 1777477242 | 28.89° C | 17% | 755.4 hPa | - | - | - | - |
| 1777476341 | 28.89° C | 16% | 755.5 hPa | - | - | - | - |
| 1777475441 | 27.78° C | 16% | 755.6 hPa | - | - | - | - |
| 1777474541 | 27.22° C | 17% | 755.6 hPa | - | - | - | - |
* Rain since midnight (hover to see other rain measurements)
** Current wind speed in m/s (hover to see current wind gust speed)